This demonstration page uses our WeatherBlox Daily Observations layout. Learn more.

Left ArrowRight Arrow

Hourly Observations for April 25, 2017

Temp ( °F °C ) Dew Point ( °F °C ) Humidity (%) Winds ( mph kmh ) Pressure ( in mb ) Visibility ( mi km ) Precip ( " mm )
12:53 am 00:53 Clear 49 9.4 44 6.7 83 83 Calm 29.99 1016 10 16 0.00 0.00
1:53 am 01:53 Clear 49 9.4 44 6.7 83 83 N 3 6 30.00 1016 10 16 0.00 0.00
2:53 am 02:53 Clear 48 8.9 44 6.7 86 86 Calm 30.00 1016 10 16 0.00 0.00
3:53 am 03:53 Clear 47 8.3 44 6.7 90 90 N 5 7 30.00 1016 10 16 0.00 0.00
4:53 am 04:53 Clear 48 8.9 44 6.7 86 86 Calm 30.01 1016 10 16 0.00 0.00
5:53 am 05:53 Clear 48 8.9 44 6.7 86 86 N 3 6 30.01 1016 10 16 0.00 0.00
6:53 am 06:53 Sunny 48 8.9 44 6.7 86 86 Calm 30.01 1016 10 16 0.00 0.00
7:53 am 07:53 Mostly Cloudy 50 10 45 7.2 83 83 NNE 5 7 30.04 1017 10 16 0.00 0.00
8:53 am 08:53 Cloudy 51 10.6 46 7.8 83 83 NNE 5 7 30.07 1018 10 16 0.00 0.00
9:53 am 09:53 Partly Cloudy 54 12.2 45 7.2 72 72 Calm 30.06 1018 10 16 0.00 0.00
10:53 am 10:53 Mostly Cloudy 58 14.4 43 6.1 58 58 Calm 30.05 1018 10 16 0.00 0.00
11:53 am 11:53 Partly Cloudy 62 16.7 43 6.1 50 50 ENE 5 7 30.04 1017 10 16 0.00 0.00
12:53 pm 12:53 Cloudy 63 17.2 44 6.7 50 50 ENE 3 6 30.02 1017 10 16 0.00 0.00
1:53 pm 13:53 Cloudy 63 17.2 40 4.4 43 43 SSW 3 6 30.01 1016 10 16 0.00 0.00
2:53 pm 14:53 Cloudy 64 17.8 42 5.6 45 45 undefined N/A 30.01 1016 10 16 0.00 0.00
3:53 pm 15:53 Cloudy 66 18.9 43 6.1 43 43 SSW 3 6 29.99 1016 10 16 0.00 0.00
4:53 pm 16:53 Cloudy 65 18.3 44 6.7 47 47 Calm 29.99 1016 10 16 0.00 0.00
5:53 pm 17:53 Cloudy 65 18.3 47 8.3 52 52 SE 6 9 29.99 1016 10 16 0.00 0.00
6:53 pm 18:53 Cloudy 64 17.8 48 8.9 56 56 SSE 7 11 29.99 1016 10 16 0.00 0.00
7:53 pm 19:53 Cloudy 63 17.2 48 8.9 58 58 SSE 8 13 29.98 1015 10 16 0.00 0.00
8:53 pm 20:53 Mostly Clear 63 17.2 46 7.8 54 54 SSW 5 7 29.99 1016 10 16 0.00 0.00
9:53 pm 21:53 Mostly Cloudy 60 15.6 49 9.4 67 67 Calm 30.01 1016 10 16 0.00 0.00
10:53 pm 22:53 Mostly Cloudy 59 15 50 10 72 72 Calm 30.01 1016 10 16 0.00 0.00
11:53 pm 23:53 Cloudy with Light Rain 58 14.4 53 11.7 84 84 NE 3 6 30.01 1016 10 16 0.00 0.03

Powered by AerisWeather